#timestamp,LO_Frequency,Hit,StdDev 
1624892415.7,286047000.6,P
1624892435.5,286047002.8,N
1624892455.3,286047000.1,N
1624892475.2,286047002.7,N
1624892495.9,286047000.2,N
1624892515.7,286047001.1,N
1624892535.6,286047000.2,N
1624892555.4,286047002.8,N
1624892575.2,286047002.4,N
1624892595.1,286047002.6,N
1624892596.0,286047002.6,N
1624892615.8,286047002.2,N
1624892635.7,286047002.8,N
1624892655.5,286047002.4,N
1624892675.3,286046999.8,N
1624892695.2,286047002.5,N
1624892715.0,286047002.5,N
1624892715.9,286047002.5,N
1624892735.7,286047002.4,N
1624892755.6,286047001.3,N
1624892775.4,286047004.1,Y
1624892795.3,286047002.7,P
1624892815.1,286047001.9,P
1624892835.8,286047001.5,P
1624892855.7,286047003.9,Y
1624892875.5,286047002.5,P
1624892895.4,286047002.7,P
1624892915.2,286046999.7,N
1624892935.0,286047000.1,N
1624892935.9,286047000.1,N
1624892955.8,286047000.3,N
1624892975.6,286047000.2,N
1624892995.4,286046999.7,N
1624893015.3,286047002.7,N
1624893035.1,286047002.6,N
1624893055.9,286047002.5,N
1624893075.7,286046999.7,N
1624893095.5,286047002.4,N
1624893115.4,286046999.8,N
1624893135.2,286047000.5,N
1624893155.0,286047000.7,N
1624893155.9,286047000.7,N
1624893175.8,286047001.2,N
1624893195.6,286047000.5,N
1624893215.4,286047001.1,N
1624893235.3,286047000.9,N
1624893255.1,286046999.8,N
1624893275.9,286047000.9,N
1624893295.7,286047002.7,N
1624893315.5,286047002.2,N
1624893335.4,286047000.2,N
1624893355.2,286047002.7,N
1624893375.0,286047000.1,N
1624893376.0,286047000.1,N
1624893395.8,286047002.4,N
1624893415.6,286047002.2,N
1624893435.5,286047001.3,N
1624893455.3,286047002.1,N
1624893475.1,286047001.3,N
1624893495.9,286047002.5,N
1624893515.7,286047002.5,N
1624893535.6,286047002.2,N
1624893555.4,286047002.3,N
1624893575.2,286047001.4,N
1624893595.1,286047002.0,N
1624893596.0,286047002.0,N
1624893615.8,286047002.5,N
1624893635.6,286046999.8,N
1624893655.5,286047002.3,N
1624893675.3,286047002.3,N
1624893695.2,286047002.8,N
1624893715.9,286046999.9,N
1624893735.7,286047000.4,N
1624893755.6,286047001.9,N
1624893775.4,286047002.0,N
1624893795.2,286046999.8,N
1624893845.1,286047001.0,E
1624893855.0,286047000.7,N
1624893855.9,286047000.7,P
1624893875.8,286046998.7,P
1624893895.6,286046998.2,N
1624893915.5,286047000.7,N
1624893935.3,286046998.6,N
1624893955.1,286046998.4,N
1624893975.9,286046998.7,N
1624893995.7,286046998.2,N
1624894015.5,286046998.7,N
1624894035.4,286046998.7,N
1624894055.2,286046998.1,N
1624894075.1,286046998.6,N
1624894076.0,286046998.6,N
1624894095.8,286046998.4,N
1624894115.6,286046999.0,N
1624894135.5,286046999.3,N
1624894155.3,286046996.5,Y
1624894175.2,286046998.5,P
1624894195.9,286046998.8,P
1624894215.7,286046999.5,N
1624894235.6,286046999.5,N
1624894255.4,286046999.5,N
1624894275.3,286046998.1,Y
1624894295.1,286046998.5,P
1624894296.0,286046998.5,P
1624894315.8,286046999.3,N
1624894335.7,286046997.0,Y
1624894355.5,286046998.5,P
1624894375.3,286046998.1,P
1624894395.2,286047000.8,N
1624894415.0,286046998.3,N
1624894415.9,286046998.3,N
1624894435.8,286046998.4,N
1624894455.6,286046998.6,N
1624894475.4,286046998.8,N
1624894495.3,286047000.9,N
1624894515.1,286047001.1,N
1624894535.8,286047000.9,N
1624894555.7,286047001.1,N
1624894575.5,286046998.4,N
1624894595.4,286046998.4,N
1624894615.2,286047001.0,N
1624894635.0,286047000.3,N
1624894635.9,286047000.3,N
1624894655.8,286047000.9,N
1624894675.6,286046998.6,N
1624894695.4,286047000.7,N
1624894715.3,286047001.2,N
1624894735.1,286046998.9,N
1624894755.9,286046998.1,N
1624894775.7,286047000.5,N
1624894795.5,286047000.1,N
1624894815.4,286046998.1,N
1624894835.2,286046998.1,N
1624894855.0,286047000.9,N
1624894855.9,286047000.9,N
1624894875.8,286047000.4,N
1624894895.6,286047000.8,N
1624894915.4,286047000.3,N
1624894935.3,286047000.6,N
1624894955.1,286047002.3,N
1624894975.9,286047002.7,N
1624894995.7,286047002.6,N
1624895015.5,286047002.5,N
1624895035.4,286047000.5,N
1624895055.2,286047000.6,N
1624895075.0,286047001.2,N
1624895076.0,286047001.2,N
1624895095.8,286046998.9,N
1624895115.6,286046998.7,N
1624895135.5,286046999.1,N
1624895155.3,286046998.5,N
1624895175.1,286046998.8,N
1624895195.9,286047001.2,N
1624895215.7,286046998.9,N
1624895235.5,286047000.7,N
1624895255.4,286047000.7,N
1624895275.2,286046998.4,N
1624895295.1,286046999.1,N
1624895296.0,286046999.1,N
1624895315.8,286047001.1,N
1624895335.6,286046998.5,N
1624895355.5,286046998.2,N
1624895375.3,286047000.6,N
1624895395.2,286046998.5,N
1624895415.9,286047002.7,N
1624895435.7,286047002.7,N
1624895455.6,286047000.5,N
1624895475.4,286047001.2,N
1624895495.2,286046998.1,N
1624895515.1,286046998.5,N
1624895516.0,286046998.5,N
1624895535.8,286047000.7,N
1624895555.7,286046999.0,N
1624895575.5,286046998.4,N
1624895595.3,286046998.5,N
1624895615.2,286046997.3,N
1624895635.9,286046997.7,N
1624895655.7,286046999.0,N
1624895675.6,286046996.7,N
1624895695.4,286046995.1,Y
1624895715.3,286046999.2,P
1624895735.1,286046997.4,P
1624895736.0,286046997.4,N
1624895755.8,286046997.7,N
1624895775.7,286046999.6,N
1624895795.5,286046997.5,N
1624895815.3,286046997.5,N
1624895835.2,286046995.2,Y
1624895855.0,286046996.5,P
1624895855.9,286046996.5,P
1624895875.8,286046997.2,P
1624895895.6,286046995.5,Y
1624895915.4,286046999.0,P
1624895935.3,286046999.2,N
1624895955.1,286046998.3,N
1624895975.9,286046998.9,N
1624895995.7,286046999.7,N
